Miscellaneous Local Product
Issued by NWS Hastings, NE

Home | Current Version | Previous Version | Text Only | Print | Product List | Glossary On
Versions: 1 2 3 4 5 6 7 8 9 10 11 12 13 14 15 16 17 18 19 20 21 22 23 24 25 26 27 28 29 30 31 32 33 34 35 36 37 38 39 40 41 42 43 44 45 46 47 48 49 50
000
AXUS43 KGID 301402
MISGRI

GID CWA HOURLY WEATHER ROUNDUP
NATIONAL WEATHER SERVICE HASTINGS NE
900 AM CDT TUE SEP 30 2014

NOTE: "FAIR" INDICATES FEW OR NO CLOUDS BELOW 12,000 FEET WITH NO
SIGNIFICANT WEATHER AND/OR OBSTRUCTIONS TO VISIBILITY.

...SOUTH CENTRAL NEBRASKA...

CITY           SKY/WX    TMP DP  RH WIND       PRES   REMARKS
GRAND ISLAND   PTSUNNY   66  58  75 S15       29.82R
HASTINGS       PTSUNNY   65  56  72 S12       29.82R
KEARNEY        MOSUNNY   61  52  72 S14       29.83R
ORD            MOSUNNY   63  56  78 SW17      29.75R
YORK           PTSUNNY   64  61  88 S17       29.84R
AURORA         PTSUNNY   65  59  81 S12G18    29.82S
LEXINGTON      MOSUNNY   58  53  84 S6        29.80S
HOLDREGE       MOSUNNY   58  52  81 SE10      29.83R
HEBRON         HVY RAIN  63  59  87 S9        29.87S

...NEBRASKA PANHANDLE...

CITY           SKY/WX    TMP DP  RH WIND       PRES   REMARKS
CHADRON        LGT RAIN  52  49  89 W26G38    29.52R
ALLIANCE       CLOUDY    52  48  86 W16       29.67R
SCOTTSBLUFF    CLOUDY    56  44  64 W20G35    29.69R
SIDNEY         PTSUNNY   53  44  71 SW17      29.78R

...WESTERN AND NORTH CENTRAL NEBRASKA...

CITY           SKY/WX    TMP DP  RH WIND       PRES   REMARKS
VALENTINE      PTSUNNY   56  47  71 S25G37    29.61F
AINSWORTH      CLOUDY    56  47  72 S14G22    29.68R
ONEILL         PTSUNNY   65  62  91 S13G22    29.73R
BROKEN BOW     PTSUNNY   59  51  75 S9        29.77R
IMPERIAL       SUNNY     52  47  83 SW9       29.81S
NORTH PLATTE   SUNNY     54  48  80 S10       29.77S
MCCOOK         SUNNY     54  50  86 SW9       29.82S

...EASTERN NEBRASKA...

CITY           SKY/WX    TMP DP  RH WIND       PRES   REMARKS
NORFOLK        CLOUDY    63  61  93 SE15G23   29.80F
SO SIOUX CITY  CLOUDY    60  57  89 SE10      29.86F
TEKAMAH        CLOUDY    64  59  83 SE12G17   29.86F
COLUMBUS       PTSUNNY   64  59  82 S9        29.84S
ALBION         PTSUNNY   63  60  90 S14       29.78S
OMAHA EPPLEY   CLOUDY    66  58  75 SE7       29.88S
OFFUTT AFB     CLOUDY    65  64  96 E9        29.87S
MILLARD        CLOUDY    66  59  79 SE7       29.87S
LINCOLN        CLOUDY    68  59  73 S10       29.86R
NEBRASKA CITY  MOSUNNY   65  58  77 S7        29.88S
BEATRICE       CLOUDY    67  58  73 S10       29.87R
FALLS CITY     MOSUNNY   62  59  90 SE6       29.89S

...NORTHERN KANSAS...

CITY           SKY/WX    TMP DP  RH WIND       PRES   REMARKS
GOODLAND       SUNNY     52  47  83 CALM      29.86F
HILL CITY      PTSUNNY   58  56  93 CALM      29.84S
NORTON         MOSUNNY   57  46  67 S5        29.82S
PHILLIPSBURG   PTSUNNY   63  57  82 CALM      29.83F
SMITH CENTER   CLOUDY    63  59  88 S12       29.84F
BELOIT         CLOUDY    63  63 100 SE7       29.85F
HAYS           CLOUDY    63  57  82 SE5       29.84S
RUSSELL        CLOUDY    63  61  93 S3        29.83F
CONCORDIA      LGT RAIN  63  61  93 SW6       29.88R
SALINA         CLOUDY    69  59  70 S13       29.87R
TOPEKA         SUNNY     68  61  78 CALM      29.91S



USA.gov is the U.S. government's official web portal to all federal, state and local government web resources and services.